Regional Weather Roundup
Issued by NWS Albany, NY

Home | Current Version | Previous Version | Graphics & Text | Print | Product List | Glossary Off
Versions: 1 2 3 4 5 6 7 8 9 10 11 12 13 14 15 16 17 18 19 20 21 22 23 24 25 26 27 28 29 30 31 32 33 34 35 36 37 38 39 40 41 42 43 44 45 46 47 48 49 50

000
ASUS41 KALY 230610
RWRALY

NEW YORK STATE HOURLY WEATHER ROUNDUP
NATIONAL WEATHER SERVICE ALBANY NY
200 AM EDT SAT MAY 23 2015

NOTE: "FAIR" INDICATES FEW OR NO CLOUDS BELOW 12,000 FEET WITH NO
SIGNIFICANT WEATHER AND/OR NO OBSTRUCTIONS TO VISIBILITY.

NYZ032-033-038>043-046>054-057>066-NYZ062>081-230700-
EAST


CITY           SKY/WX    TMP DP  RH WIND       PRES   REMARKS
ALBANY         MOCLDY    45  28  51 NW10      30.24R
GLENS FALLS    CLOUDY    43  24  47 NW9       30.23R
POUGHKEEPSIE   CLEAR     50  26  39 NW7       30.19R
NEWBURGH       CLEAR     50  27  40 NW14      30.21R
MONTGOMERY     CLEAR     49  25  39 NW7       30.21R
WHITE PLAINS   CLEAR     52  24  33 NW22G30   30.18R
ISLIP          CLEAR     55  36  48 NW14      30.16R
NEW YORK CITY  CLEAR     57  31  37 NW22G33   30.21R
CENTRAL PARK   CLEAR     56  28  34 VRB3      30.24R
$$

NYZ005>009-017-018-044>046-055-056-230700-
CENTRAL


CITY           SKY/WX    TMP DP  RH WIND       PRES   REMARKS
FULTON         CLEAR     39  28  64 N6        30.30R WCI  35
SYRACUSE       PTCLDY    40  28  62 NW7       30.29R
ROME           CLEAR     36  26  67 NW6       30.28R WCI  31
ELMIRA         CLEAR     38  28  67 NW5       30.28R WCI  34
BINGHAMTON     CLEAR     37  26  64 W7        30.24R WCI  32
MONTICELLO     CLEAR     41  25  52 W12       30.20R
$$

NYZ026>034-041>043-230700-
NORTH


CITY           SKY/WX    TMP DP  RH WIND       PRES   REMARKS
WATERTOWN      CLEAR     34  27  75 NW5       30.29S WCI  30
FORT DRUM      NOT AVBL
MASSENA        CLEAR     37  24  59 W7        30.26R WCI  32
SARANAC LAKE   PTCLDY    29  17  61 CALM      30.18R
PLATTSBURGH    CLEAR     36  20  52 SW3       30.21R
$$

NYZ001>004-010>016-019>021-230700-
WEST


CITY           SKY/WX    TMP DP  RH WIND       PRES   REMARKS
NIAGARA FALLS  CLEAR     38  27  64 CALM      30.33R
BUFFALO        PTCLDY    41  26  55 CALM      30.33R
DUNKIRK        CLEAR     35  32  88 S5        30.34R WCI  31
JAMESTOWN      CLEAR     37  27  65 SW7       30.33R WCI  32
WELLSVILLE     CLEAR     36  25  64 NW7       30.30R WCI  30
ROCHESTER      CLEAR     36  30  79 SW5       30.33R WCI  32
PENN YAN       CLEAR     40  28  62 NW3       30.30R
$$

             KEY
       WCI = WIND CHILL INDEX
       VSB = VISIBILITY
       HX  = HEAT INDEX
$$


USA.gov is the U.S. government's official web portal to all federal, state and local government web resources and services.